DW7002 Weather Reports


Display with metric or nautical units.
time (UTC)temp
F
wind
direction
speed
MPH
gust
MPH
rain 1hr
in
rain 24hr
in
rain mn
in
humidity
%
barometer
mb
20260506051127 65 153 1.0 5.0 0.00 0.00 0.00 72 1015.8
20260506050119 65 261 1.0 4.0 0.00 0.00 0.00 72 1015.9
20260506045129 65 169 1.0 5.0 0.00 0.00 0.00 72 1016.0
20260506044127 65 169 1.0 6.0 0.00 0.00 0.00 71 1015.9
20260506043120 66 192 1.0 8.0 0.00 0.00 0.00 71 1015.9
20260506042133 66 138 1.0 5.0 0.00 0.00 0.00 70 1016.0
20260506041128 66 171 2.0 7.0 0.00 0.00 0.00 69 1016.0
20260506040121 66 171 2.0 7.0 0.00 0.00 0.00 68 1015.9
20260506035133 66 198 3.0 7.0 0.00 0.00 0.00 67 1015.7
20260506034126 67 241 3.0 6.0 0.00 0.00 0.00 66 1015.7
20260506033122 67 163 2.0 7.0 0.00 0.00 0.00 65 1015.6
20260506032155 67 180 3.0 6.0 0.00 0.00 0.00 63 1015.9
20260506031147 67 183 3.0 6.0 0.00 0.00 0.00 60 1015.9
20260506030119 67 111 2.0 6.0 0.00 0.00 0.00 59 1015.9
20260506025133 67 173 2.0 5.0 0.00 0.00 0.00 59 1015.9
20260506024127 67 215 1.0 4.0 0.00 0.00 0.00 59 1015.8
20260506023119 67 243 0.0 2.0 0.00 0.00 0.00 59 1015.9
20260506022116 67 250 0.0 2.0 0.00 0.00 0.00 59 1016.0
20260506021129 67 250 1.0 2.0 0.00 0.00 0.00 58 1015.9
20260506020123 68 250 0.0 1.0 0.00 0.00 0.00 58 1015.9
20260506015133 68 250 0.0 1.0 0.00 0.00 0.00 56 1015.8
20260506014149 69 250 1.0 2.0 0.00 0.00 0.00 56 1015.8
20260506013120 69 250 0.0 1.0 0.00 0.00 0.00 54 1015.6
20260506012133 70 250 0.0 0.0 0.00 0.00 0.00 54 1015.6
20260506011124 70 250 0.0 1.0 0.00 0.00 0.00 52 1015.4
20260506010140 71 250 0.0 1.0 0.00 0.00 0.00 51 1015.3
20260506005150 71 250 0.0 2.0 0.00 0.00 0.00 51 1015.2
20260506004123 72 275 0.0 0.0 0.00 0.00 0.00 49 1015.2
20260506003116 72 275 0.0 1.0 0.00 0.00 0.00 48 1015.2
20260506002134 73 275 0.0 2.0 0.00 0.00 0.00 48 1015.1
20260506001127 74 250 1.0 2.0 0.00 0.00 0.00 47 1015.0
20260506000120 74 241 1.0 4.0 0.00 0.00 0.00 46 1014.9
20260505235131 75 241 1.0 5.0 0.00 0.00 0.00 46 1014.8
20260505234128 75 253 1.0 4.0 0.00 0.00 0.00 45 1014.7
20260505233121 76 333 1.0 5.0 0.00 0.00 0.00 44 1014.6
20260505232134 76 176 2.0 5.0 0.00 0.00 0.00 44 1014.5
20260505231127 77 171 1.0 5.0 0.00 0.00 0.00 43 1014.5
20260505230121 77 289 2.0 5.0 0.00 0.00 0.00 42 1014.6
20260505225130 78 68 1.0 4.0 0.00 0.00 0.00 42 1014.6
20260505224122 78 279 2.0 6.0 0.00 0.00 0.00 41 1014.7
20260505223119 78 241 2.0 6.0 0.00 0.00 0.00 41 1014.6
20260505222133 78 280 2.0 12.0 0.00 0.00 0.00 41 1014.8
20260505221125 78 267 2.0 5.0 0.00 0.00 0.00 41 1014.9
20260505220120 79 219 2.0 5.0 0.00 0.00 0.00 40 1014.9
20260505215129 79 145 2.0 5.0 0.00 0.00 0.00 40 1014.8
20260505214123 79 277 1.0 7.0 0.00 0.00 0.00 40 1014.8
20260505213117 79 90 2.0 7.0 0.00 0.00 0.00 40 1014.9
20260505212133 79 265 2.0 12.0 0.00 0.00 0.00 41 1015.0
20260505211126 79 243 4.0 6.0 0.00 0.00 0.00 41 1015.1
20260505210117 79 284 2.0 7.0 0.00 0.00 0.00 41 1015.0
20260505205132 79 286 4.0 8.0 0.00 0.00 0.00 41 1015.1
20260505204145 80 22 2.0 9.0 0.00 0.00 0.00 40 1015.1
20260505203117 79 238 4.0 7.0 0.00 0.00 0.00 40 1015.1
20260505202129 79 133 2.0 7.0 0.00 0.00 0.00 41 1015.2
20260505201125 80 245 4.0 7.0 0.00 0.00 0.00 40 1015.3
20260505200117 80 288 3.0 7.0 0.00 0.00 0.00 40 1015.7
20260505195128 80 267 4.0 7.0 0.00 0.00 0.00 40 1015.7
20260505194140 80 308 3.0 6.0 0.00 0.00 0.00 40 1015.8
20260505193116 79 199 2.0 6.0 0.00 0.00 0.00 42 1015.9
20260505192129 79 192 1.0 7.0 0.00 0.00 0.00 42 1016.1
20260505191122 79 284 2.0 11.0 0.00 0.00 0.00 43 1016.1
20260505190118 79 159 3.0 7.0 0.00 0.00 0.00 43 1016.5
20260505185129 79 284 3.0 8.0 0.00 0.00 0.00 42 1016.8
20260505184120 79 256 3.0 9.0 0.00 0.00 0.00 43 1016.8
20260505183133 78 317 5.0 9.0 0.00 0.00 0.00 42 1016.9
20260505182130 78 172 3.0 7.0 0.00 0.00 0.00 42 1017.0
20260505181123 79 323 4.0 7.0 0.00 0.00 0.00 43 1017.1
20260505180115 78 160 2.0 7.0 0.00 0.00 0.00 44 1017.3
20260505175126 79 182 2.0 7.0 0.00 0.00 0.00 43 1017.1
20260505174123 78 308 2.0 6.0 0.00 0.00 0.00 43 1017.3
20260505173156 79 281 2.0 8.0 0.00 0.00 0.00 42 1017.5
20260505172127 78 306 4.0 8.0 0.00 0.00 0.00 42 1017.3
20260505171126 78 321 1.0 6.0 0.00 0.00 0.00 42 1017.3
20260505170118 77 278 2.0 11.0 0.00 0.00 0.00 45 1017.5
20260505165129 77 231 4.0 8.0 0.00 0.00 0.00 43 1017.6
20260505164123 78 351 2.0 5.0 0.00 0.00 0.00 47 1017.6
20260505163121 77 128 2.0 10.0 0.00 0.00 0.00 47 1017.7
20260505162133 77 309 1.0 6.0 0.00 0.00 0.00 47 1017.7
20260505161125 77 169 3.0 6.0 0.00 0.00 0.00 48 1018.0
20260505160119 76 159 2.0 7.0 0.00 0.00 0.00 50 1018.1
20260505153134 74 293 4.0 6.0 0.00 0.00 0.00 53 1018.2
20260505152129 74 220 2.0 6.0 0.00 0.00 0.00 54 1018.2
20260505151122 73 306 2.0 6.0 0.00 0.00 0.00 55 1018.2
20260505150114 72 304 4.0 9.0 0.00 0.00 0.00 57 1018.2
20260505140133 67 253 2.0 6.0 0.00 0.00 0.00 67 1018.2
20260505130126 62 284 4.0 7.0 0.00 0.00 0.00 74 1018.1
20260505124154 60 284 2.0 6.0 0.00 0.00 0.00 77 1017.9
20260505123145 60 269 3.0 5.0 0.00 0.00 0.00 77 1017.9
20260505122117 59 286 2.0 3.0 0.00 0.00 0.00 78 1018.1
20260505121129 58 306 1.0 3.0 0.00 0.00 0.00 79 1018.0
20260505120127 58 279 1.0 4.0 0.00 0.00 0.00 79 1017.9
20260505115117 57 278 1.0 4.0 0.00 0.00 0.00 80 1017.8
20260505114131 56 271 2.0 3.0 0.00 0.00 0.00 80 1017.7
20260505113128 56 5 1.0 2.0 0.00 0.00 0.00 81 1017.7
20260505112142 55 261 0.0 0.0 0.00 0.00 0.00 81 1017.5
20260505111134 55 261 0.0 0.0 0.00 0.00 0.00 81 1017.7
20260505110124 55 261 0.0 0.0 0.00 0.00 0.00 81 1017.6
20260505102120 56 286 0.0 0.0 0.00 0.00 0.00 79 1017.3
20260505101134 56 286 0.0 0.0 0.00 0.00 0.00 78 1017.3
20260505100124 57 286 0.0 0.0 0.00 0.00 0.00 77 1017.2
20260505095115 57 286 0.0 4.0 0.00 0.00 0.00 76 1017.1
20260505094132 57 286 1.0 5.0 0.00 0.00 0.00 76 1016.9
20260505093146 57 263 1.0 4.0 0.00 0.00 0.00 76 1016.8
20260505092116 57 207 0.0 1.0 0.00 0.00 0.00 77 1016.7
20260505091148 57 207 1.0 1.0 0.00 0.00 0.00 76 1016.7
20260505090144 57 187 1.0 2.0 0.00 0.00 0.00 76 1016.7
20260505085133 57 187 0.0 1.0 0.00 0.00 0.00 75 1016.5
20260505084125 58 136 0.0 0.0 0.00 0.00 0.00 75 1016.5
20260505083119 58 136 0.0 0.0 0.00 0.00 0.00 74 1016.6
20260505082116 59 136 0.0 0.0 0.00 0.00 0.00 73 1016.5
20260505081128 59 136 0.0 2.0 0.00 0.00 0.00 73 1016.5
20260505080119 59 255 1.0 2.0 0.00 0.00 0.00 72 1016.5
20260505075130 59 250 1.0 2.0 0.00 0.00 0.00 72 1016.4
20260505074127 60 298 1.0 4.0 0.00 0.00 0.00 71 1016.3
20260505073120 60 344 1.0 4.0 0.00 0.00 0.00 70 1016.3
20260505072133 60 284 1.0 4.0 0.00 0.00 0.00 70 1016.3
20260505071149 60 271 1.0 6.0 0.00 0.00 0.00 70 1016.1
20260505070119 60 261 1.0 3.0 0.00 0.00 0.00 69 1016.1
20260505065129 61 272 1.0 4.0 0.00 0.00 0.00 69 1016.2
20260505064122 61 259 1.0 4.0 0.00 0.00 0.00 69 1016.2
20260505063120 61 259 1.0 3.0 0.00 0.00 0.00 68 1016.1
20260505062134 61 271 2.0 6.0 0.00 0.00 0.00 68 1016.0
20260505061125 61 237 2.0 3.0 0.00 0.00 0.00 67 1016.1
20260505060122 61 215 1.0 5.0 0.00 0.00 0.00 67 1016.1
20260505055152 61 207 1.0 6.0 0.00 0.00 0.00 66 1016.1
20260505054121 61 304 1.0 2.0 0.00 0.00 0.00 66 1016.0